Time,TemperatureF,DewpointF,PressureIn,WindDirection,WindDirectionDegrees,WindSpeedMPH,WindSpeedGustMPH,Humidity,HourlyPrecipIn,Conditions,Clouds,dailyrainin,SoftwareType,DateUTC
2013-03-25 00:13:00,44.9,44.0,29.59,ESE,123,0.0,1.0,96,0.00,,,0.00,weatherlink.com 1.10,2013-03-25 04:13:00,
2013-03-25 00:28:00,44.9,44.0,29.59,ESE,123,1.0,1.0,96,0.00,,,0.00,weatherlink.com 1.10,2013-03-25 04:28:00,
2013-03-25 00:43:00,45.0,44.0,29.60,ESE,114,0.0,1.0,96,0.00,,,0.00,weatherlink.com 1.10,2013-03-25 04:43:00,
2013-03-25 00:58:00,45.0,44.0,29.60,ESE,110,0.0,1.0,96,0.00,,,0.00,weatherlink.com 1.10,2013-03-25 04:58:00,
2013-03-25 01:13:00,45.0,44.0,29.61,SW,236,0.0,1.0,96,0.00,,,0.00,weatherlink.com 1.10,2013-03-25 05:13:00,
2013-03-25 01:28:00,45.0,44.0,29.62,SW,236,1.0,1.0,96,0.00,,,0.00,weatherlink.com 1.10,2013-03-25 05:28:00,
2013-03-25 01:43:00,45.1,44.0,29.63,West,274,0.0,1.0,97,0.00,,,0.00,weatherlink.com 1.10,2013-03-25 05:43:00,
2013-03-25 01:58:00,45.2,44.0,29.63,WNW,300,0.0,1.0,96,0.00,,,0.00,weatherlink.com 1.10,2013-03-25 05:58:00,
2013-03-25 02:13:00,45.2,44.0,29.64,WNW,291,0.0,2.0,96,0.00,,,0.00,weatherlink.com 1.10,2013-03-25 06:13:00,
2013-03-25 02:28:00,45.3,44.0,29.64,West,271,0.0,1.0,96,0.00,,,0.00,weatherlink.com 1.10,2013-03-25 06:28:00,
2013-03-25 02:44:00,45.3,45.0,29.64,WNW,300,0.0,3.0,97,0.00,,,0.00,weatherlink.com 1.10,2013-03-25 06:44:00,
2013-03-25 02:59:00,45.3,45.0,29.65,WNW,296,1.0,3.0,97,0.00,,,0.00,weatherlink.com 1.10,2013-03-25 06:59:00,
2013-03-25 03:14:00,45.4,45.0,29.64,WNW,290,0.0,2.0,97,0.00,,,0.00,weatherlink.com 1.10,2013-03-25 07:14:00,
2013-03-25 03:29:00,45.5,45.0,29.64,WNW,288,1.0,4.0,97,0.00,,,0.00,weatherlink.com 1.10,2013-03-25 07:29:00,
2013-03-25 03:44:00,45.6,45.0,29.64,WNW,295,0.0,2.0,97,0.00,,,0.00,weatherlink.com 1.10,2013-03-25 07:44:00,
2013-03-25 03:59:00,45.7,45.0,29.64,WNW,284,2.0,3.0,97,0.00,,,0.00,weatherlink.com 1.10,2013-03-25 07:59:00,
2013-03-25 04:14:00,45.8,45.0,29.64,WNW,287,0.0,3.0,97,0.00,,,0.00,weatherlink.com 1.10,2013-03-25 08:14:00,
2013-03-25 04:29:00,46.0,45.0,29.64,WNW,290,0.0,2.0,97,0.00,,,0.00,weatherlink.com 1.10,2013-03-25 08:29:00,
2013-03-25 04:44:00,46.0,45.0,29.64,West,274,0.0,3.0,97,0.00,,,0.00,weatherlink.com 1.10,2013-03-25 08:44:00,
2013-03-25 04:59:00,46.0,45.0,29.64,West,274,0.0,0.0,97,0.00,,,0.00,weatherlink.com 1.10,2013-03-25 08:59:00,
2013-03-25 05:14:00,45.7,45.0,29.64,WNW,293,0.0,1.0,97,0.00,,,0.00,weatherlink.com 1.10,2013-03-25 09:14:00,
2013-03-25 05:29:00,45.7,45.0,29.64,SW,231,0.0,4.0,97,0.00,,,0.00,weatherlink.com 1.10,2013-03-25 09:29:00,
2013-03-25 05:44:00,46.6,44.0,29.64,WNW,297,6.0,12.0,90,0.00,,,0.00,weatherlink.com 1.10,2013-03-25 09:44:00,
2013-03-25 05:59:00,46.7,44.0,29.65,West,271,4.0,6.0,89,0.00,,,0.00,weatherlink.com 1.10,2013-03-25 09:59:00,
2013-03-25 06:14:00,47.0,43.0,29.65,WNW,297,1.0,15.0,85,0.00,,,0.00,weatherlink.com 1.10,2013-03-25 10:14:00,
2013-03-25 06:29:00,46.7,41.0,29.66,West,269,4.0,12.0,80,0.00,,,0.00,weatherlink.com 1.10,2013-03-25 10:29:00,
2013-03-25 06:44:00,46.2,40.0,29.67,WNW,288,3.0,10.0,80,0.00,,,0.00,weatherlink.com 1.10,2013-03-25 10:44:00,
2013-03-25 06:59:00,45.5,40.0,29.67,NNW,330,2.0,11.0,80,0.00,,,0.00,weatherlink.com 1.10,2013-03-25 10:59:00,
2013-03-25 07:14:00,44.7,38.0,29.68,ESE,114,0.0,6.0,77,0.00,,,0.00,weatherlink.com 1.10,2013-03-25 11:14:00,
2013-03-25 07:29:00,44.1,37.0,29.68,West,278,0.0,8.0,75,0.00,,,0.00,weatherlink.com 1.10,2013-03-25 11:29:00,
2013-03-25 07:44:00,44.0,35.0,29.68,West,270,2.0,12.0,72,0.00,,,0.00,weatherlink.com 1.10,2013-03-25 11:44:00,
2013-03-25 07:59:00,44.6,35.0,29.68,WNW,302,4.0,10.0,70,0.00,,,0.00,weatherlink.com 1.10,2013-03-25 11:59:00,
2013-03-25 08:14:00,45.0,35.0,29.69,West,276,4.0,12.0,68,0.00,,,0.00,weatherlink.com 1.10,2013-03-25 12:14:00,
2013-03-25 08:29:00,45.5,36.0,29.70,WNW,302,2.0,11.0,69,0.00,,,0.00,weatherlink.com 1.10,2013-03-25 12:29:00,
2013-03-25 08:44:00,46.5,35.0,29.70,WNW,282,5.0,11.0,65,0.00,,,0.00,weatherlink.com 1.10,2013-03-25 12:44:00,
2013-03-25 08:59:00,47.5,34.0,29.71,WNW,294,10.0,15.0,61,0.00,,,0.00,weatherlink.com 1.10,2013-03-25 12:59:00,
2013-03-25 09:14:00,48.1,35.0,29.71,West,274,1.0,14.0,61,0.00,,,0.00,weatherlink.com 1.10,2013-03-25 13:14:00,
2013-03-25 09:29:00,48.2,34.0,29.71,WNW,302,12.0,18.0,59,0.00,,,0.00,weatherlink.com 1.10,2013-03-25 13:29:00,
2013-03-25 09:44:00,48.4,33.0,29.71,West,274,8.0,20.0,56,0.00,,,0.00,weatherlink.com 1.10,2013-03-25 13:44:00,
2013-03-25 09:59:00,48.8,34.0,29.72,WNW,300,4.0,19.0,57,0.00,,,0.00,weatherlink.com 1.10,2013-03-25 13:59:00,
2013-03-25 10:14:00,49.3,34.0,29.72,WSW,238,6.0,15.0,56,0.00,,,0.00,weatherlink.com 1.10,2013-03-25 14:14:00,
2013-03-25 10:30:00,49.7,33.0,29.72,WSW,248,11.0,18.0,53,0.00,,,0.00,weatherlink.com 1.10,2013-03-25 14:30:00,
2013-03-25 10:45:00,50.2,34.0,29.72,SW,236,5.0,20.0,54,0.00,,,0.00,weatherlink.com 1.10,2013-03-25 14:45:00,
2013-03-25 11:00:00,50.4,35.0,29.72,West,278,4.0,16.0,57,0.00,,,0.00,weatherlink.com 1.10,2013-03-25 15:00:00,
2013-03-25 11:15:00,50.3,34.0,29.72,WNW,298,10.0,16.0,55,0.00,,,0.00,weatherlink.com 1.10,2013-03-25 15:15:00,
2013-03-25 11:30:00,49.8,33.0,29.72,West,279,8.0,21.0,53,0.00,,,0.00,weatherlink.com 1.10,2013-03-25 15:30:00,
2013-03-25 11:45:00,50.9,33.0,29.73,WNW,290,6.0,21.0,50,0.00,,,0.00,weatherlink.com 1.10,2013-03-25 15:45:00,
2013-03-25 12:00:00,51.1,31.0,29.73,WNW,289,8.0,19.0,46,0.00,,,0.00,weatherlink.com 1.10,2013-03-25 16:00:00,
2013-03-25 12:15:00,51.4,32.0,29.72,WNW,294,11.0,17.0,47,0.00,,,0.00,weatherlink.com 1.10,2013-03-25 16:15:00,
2013-03-25 12:30:00,51.5,31.0,29.73,WNW,291,9.0,16.0,46,0.00,,,0.00,weatherlink.com 1.10,2013-03-25 16:30:00,
2013-03-25 12:45:00,51.7,31.0,29.73,NW,304,10.0,27.0,45,0.00,,,0.00,weatherlink.com 1.10,2013-03-25 16:45:00,
2013-03-25 13:00:00,52.3,30.0,29.73,WNW,300,12.0,17.0,43,0.00,,,0.00,weatherlink.com 1.10,2013-03-25 17:00:00,
2013-03-25 13:15:00,52.0,29.0,29.73,SW,220,4.0,22.0,42,0.00,,,0.00,weatherlink.com 1.10,2013-03-25 17:15:00,
2013-03-25 13:30:00,52.4,30.0,29.72,WNW,283,8.0,22.0,42,0.00,,,0.00,weatherlink.com 1.10,2013-03-25 17:30:00,
2013-03-25 13:45:00,52.3,28.0,29.72,NNW,331,11.0,18.0,39,0.00,,,0.00,weatherlink.com 1.10,2013-03-25 17:45:00,
2013-03-25 14:00:00,53.1,30.0,29.72,NW,314,5.0,19.0,41,0.00,,,0.00,weatherlink.com 1.10,2013-03-25 18:00:00,
2013-03-25 14:15:00,54.0,31.0,29.71,WNW,300,2.0,16.0,42,0.00,,,0.00,weatherlink.com 1.10,2013-03-25 18:15:00,
2013-03-25 14:30:00,53.5,30.0,29.73,WNW,283,10.0,22.0,41,0.00,,,0.00,weatherlink.com 1.10,2013-03-25 18:30:00,
2013-03-25 14:45:00,53.4,30.0,29.72,NW,304,2.0,23.0,41,0.00,,,0.00,weatherlink.com 1.10,2013-03-25 18:45:00,
2013-03-25 15:00:00,54.2,31.0,29.72,NW,306,8.0,18.0,41,0.00,,,0.00,weatherlink.com 1.10,2013-03-25 19:00:00,
2013-03-25 15:15:00,54.3,30.0,29.72,WNW,290,10.0,16.0,39,0.00,,,0.00,weatherlink.com 1.10,2013-03-25 19:15:00,
2013-03-25 15:30:00,54.1,28.0,29.72,WNW,297,16.0,18.0,37,0.00,,,0.00,weatherlink.com 1.10,2013-03-25 19:30:00,
2013-03-25 15:45:00,54.2,30.0,29.72,WNW,295,7.0,19.0,39,0.00,,,0.00,weatherlink.com 1.10,2013-03-25 19:45:00,
2013-03-25 16:00:00,54.2,28.0,29.73,West,265,11.0,18.0,37,0.00,,,0.00,weatherlink.com 1.10,2013-03-25 20:00:00,
2013-03-25 16:15:00,54.8,29.0,29.73,NW,319,8.0,22.0,37,0.00,,,0.00,weatherlink.com 1.10,2013-03-25 20:15:00,
2013-03-25 16:30:00,54.0,27.0,29.73,West,281,4.0,24.0,36,0.00,,,0.00,weatherlink.com 1.10,2013-03-25 20:30:00,
2013-03-25 16:45:00,53.3,27.0,29.73,West,281,5.0,21.0,36,0.00,,,0.00,weatherlink.com 1.10,2013-03-25 20:45:00,
2013-03-25 17:00:00,54.1,27.0,29.74,WNW,299,14.0,22.0,35,0.00,,,0.00,weatherlink.com 1.10,2013-03-25 21:00:00,
2013-03-25 17:15:00,54.2,28.0,29.75,NW,304,14.0,17.0,36,0.00,,,0.00,weatherlink.com 1.10,2013-03-25 21:15:00,
2013-03-25 17:30:00,53.7,26.0,29.75,NW,304,4.0,20.0,34,0.00,,,0.00,weatherlink.com 1.10,2013-03-25 21:30:00,
2013-03-25 17:45:00,53.5,27.0,29.76,WNW,288,11.0,16.0,36,0.00,,,0.00,weatherlink.com 1.10,2013-03-25 21:45:00,
2013-03-25 18:00:00,53.3,26.0,29.76,WNW,294,7.0,16.0,35,0.00,,,0.00,weatherlink.com 1.10,2013-03-25 22:00:00,
2013-03-25 18:15:00,53.5,26.0,29.77,WNW,290,7.0,16.0,35,0.00,,,0.00,weatherlink.com 1.10,2013-03-25 22:15:00,
2013-03-25 18:30:00,52.9,26.0,29.78,NW,309,6.0,16.0,36,0.00,,,0.00,weatherlink.com 1.10,2013-03-25 22:30:00,
2013-03-25 18:45:00,51.5,25.0,29.79,NW,314,7.0,17.0,36,0.00,,,0.00,weatherlink.com 1.10,2013-03-25 22:45:00,
2013-03-25 19:00:00,51.2,26.0,29.80,West,274,6.0,19.0,37,0.00,,,0.00,weatherlink.com 1.10,2013-03-25 23:00:00,
2013-03-25 19:15:00,50.0,25.0,29.82,WNW,300,4.0,15.0,38,0.00,,,0.00,weatherlink.com 1.10,2013-03-25 23:15:00,
2013-03-25 19:30:00,49.2,25.0,29.82,West,274,5.0,13.0,39,0.00,,,0.00,weatherlink.com 1.10,2013-03-25 23:30:00,
2013-03-25 19:45:00,48.3,26.0,29.84,WNW,283,3.0,6.0,42,0.00,,,0.00,weatherlink.com 1.10,2013-03-25 23:45:00,
2013-03-25 20:00:00,48.0,26.0,29.84,NNW,329,4.0,12.0,42,0.00,,,0.00,weatherlink.com 1.10,2013-03-26 00:00:00,
2013-03-25 20:16:00,47.5,26.0,29.85,WNW,297,1.0,12.0,43,0.00,,,0.00,weatherlink.com 1.10,2013-03-26 00:16:00,
2013-03-25 20:31:00,47.0,26.0,29.86,WNW,297,2.0,7.0,45,0.00,,,0.00,weatherlink.com 1.10,2013-03-26 00:31:00,
2013-03-25 20:46:00,46.9,26.0,29.86,West,265,3.0,9.0,44,0.00,,,0.00,weatherlink.com 1.10,2013-03-26 00:46:00,
2013-03-25 21:01:00,46.6,26.0,29.88,WNW,288,5.0,11.0,45,0.00,,,0.00,weatherlink.com 1.10,2013-03-26 01:01:00,
2013-03-25 21:16:00,46.4,25.0,29.88,NW,318,1.0,11.0,44,0.00,,,0.00,weatherlink.com 1.10,2013-03-26 01:16:00,
2013-03-25 21:31:00,45.9,25.0,29.89,WNW,302,8.0,12.0,45,0.00,,,0.00,weatherlink.com 1.10,2013-03-26 01:31:00,
2013-03-25 21:46:00,45.6,26.0,29.91,WNW,283,1.0,8.0,46,0.00,,,0.00,weatherlink.com 1.10,2013-03-26 01:46:00,
2013-03-25 22:01:00,45.1,26.0,29.91,West,264,8.0,8.0,47,0.00,,,0.00,weatherlink.com 1.10,2013-03-26 02:01:00,
2013-03-25 22:16:00,44.9,26.0,29.92,West,281,3.0,10.0,47,0.00,,,0.00,weatherlink.com 1.10,2013-03-26 02:16:00,
2013-03-25 22:46:00,44.6,25.0,29.93,WNW,286,6.0,15.0,46,0.00,,,0.00,weatherlink.com 1.10,2013-03-26 02:46:00,
2013-03-25 23:01:00,44.4,24.0,29.94,WNW,294,3.0,13.0,45,0.00,,,0.00,weatherlink.com 1.10,2013-03-26 03:01:00,
2013-03-25 23:16:00,44.0,24.0,29.94,West,271,1.0,10.0,46,0.00,,,0.00,weatherlink.com 1.10,2013-03-26 03:16:00,
2013-03-25 23:31:00,43.6,24.0,29.95,NW,304,4.0,10.0,47,0.00,,,0.00,weatherlink.com 1.10,2013-03-26 03:31:00,